[Iaude] MPEC W110: 2016 WL8 [a=2.31,e=0.53,i=8.1,H=20.9]

mpec at si.edu mpec at si.edu
Mon Nov 28 12:21:55 EST 2016


M.P.E.C. 2016-W110                               Issued 2016 Nov. 28, 17:15 UT
 
     The Minor Planet Electronic Circulars contain information on unusual
         minor planets and routine data on comets.  They are published
    on behalf of Division F of the International Astronomical Union by the
          Minor Planet Center, Smithsonian Astrophysical Observatory,
                          Cambridge, MA 02138, U.S.A.

             Prepared using the Tamkin Foundation Computer Network

                              MPC at CFA.HARVARD.EDU
            URL http://www.minorplanetcenter.net/    ISSN 1523-6714


                                   2016 WL8
 
Observations:
     K16W08L* C2016 11 24.59597 07 57 03.845+41 44 37.95         20.3 wLEW110F51
     K16W08L  C2016 11 24.60998 07 57 03.258+41 44 14.99         20.3 wLEW110F51
     K16W08L  C2016 11 24.62307 07 57 02.719+41 43 53.02         20.3 wLEW110F51
     K16W08L  C2016 11 24.63624 07 57 02.187+41 43 31.36         20.2 wLEW110F51
     K16W08L  C2016 11 25.78624 07 56 28.47 +41 12 13.7          20.3 RoEW110300
     K16W08L  C2016 11 25.79734 07 56 27.90 +41 11 56.8          20.6 RoEW110300
     K16W08L  C2016 11 25.80103 07 56 27.75 +41 11 50.7          20.7 RoEW110300
     K16W08L KC2016 11 27.04310 07 55 43.14 +40 38 18.7          19.6 RqEW110104
     K16W08L KC2016 11 27.04882 07 55 42.75 +40 38 11.0          20.6 RqEW110104
     K16W08L KC2016 11 27.05436 07 55 42.55 +40 38 00.8          20.2 RqEW110104
     K16W08L  C2016 11 27.93897 07 55 05.53 +40 14 14.3          20.1 VSEW110033
     K16W08L  C2016 11 27.94133 07 55 05.40 +40 14 10.8          20.3 VSEW110033
     K16W08L  C2016 11 27.94370 07 55 05.27 +40 14 07.1          20.2 VSEW110033
     K16W08L  C2016 11 28.01782 07 55 01.40 +40 12 12.3          20.9 VSEW110033
     K16W08L  C2016 11 28.02019 07 55 01.29 +40 12 08.9          20.7 VSEW110033
     K16W08L  C2016 11 28.02256 07 55 01.15 +40 12 05.1          20.8 VSEW110033
     K16W08L  C2016 11 28.10426 07 54 56.67 +40 09 56.4          19.7 VSEW110033
     K16W08L  C2016 11 28.10663 07 54 56.52 +40 09 52.6          19.7 VSEW110033
     K16W08L  C2016 11 28.10899 07 54 56.40 +40 09 49.1          19.7 VSEW110033
 
Observer details:
033 Karl Schwarzschild Observatory, Tautenburg.  Observers B. Stecklum,
    F. Ludwig.  Measurer B. Stecklum.  1.34-m f/3 Schmidt + CCD.
104 San Marcello Pistoiese.  Observers P. Bacci, M. Maestripieri.  Measurers
    P. Bacci, L. Tesi, G. Fagioli.  0.60-m f/4 reflector + CCD.
300 Bisei Spaceguard Center--BATTeRS.  Observers S. Okumura, T. Nimura.  1.0-m
    f/3.0 reflector + CCD.
F51 Pan-STARRS 1, Haleakala.  Observers B. Gibson, T. Goggia, S. Kahale,
    A. Schultz, M. Willman.  Measurers K. Chambers, S. Chastel, L. Denneau,
    H. Flewelling, M. Huber, E. Lilly, E. Magnier, R. Wainscoat, C. Waters,
    R. Weryk.  1.8-m Ritchey-Chretien + CCD.
 
Orbital elements:
2016 WL8                                                 Earth MOID = 0.1743 AU
Epoch 2017 Feb. 16.0 TT = JDT 2457800.5                 MPC
M  34.30383              (2000.0)            P               Q
n   0.28108239     Peri.  102.95455     +0.82369577     -0.55155238
a   2.3080593      Node   290.66234     +0.45029948     +0.77730260
e   0.5257769      Incl.    8.08451     +0.34460942     +0.30263946
P   3.51           H   20.9           G   0.15           U   7
Residuals in seconds of arc
161124 F51  0.2-  0.3+    161127 104  0.3+  0.3-    161128 033  0.1-  0.3+
161124 F51  0.2-  0.4+    161127 104  0.9-  1.0+    161128 033  0.2-  0.2+
161124 F51  0.0   0.0     161127 104  0.1+  0.5-    161128 033  0.3+  0.2+
161124 F51  0.2+  0.3+    161127 033  0.0   0.3+    161128 033  0.1+  0.2+
161125 300  0.8+  0.5-    161127 033  0.1-  0.4+    161128 033  0.2+  0.5+
161125 300  0.2+  0.7+    161127 033  0.2-  0.3+
161125 300  0.5+  0.6+    161128 033  0.3-  0.0

Ephemeris:
2016 WL8                 a,e,i = 2.31, 0.53, 8                   q = 1.0945
Date    TT    R. A. (2000) Decl.     Delta      r     Elong.  Phase     V
2016 10 29    07 22 33.9 +54 46 52   0.2616  1.1038   108.3    58.7    20.3
...
2016 11 13    07 54 42.8 +47 13 02   0.2778  1.1404   116.4    51.0    20.3
...
2016 11 21    07 57 59.0 +43 23 32   0.2876  1.1699   123.1    45.0    20.3
...
2016 11 27    07 55 44.0 +40 39 33   0.2962  1.1959   129.1    39.8    20.2
2016 11 28    07 55 01.4 +40 12 49   0.2978  1.2006   130.2    38.9    20.2
2016 11 29    07 54 13.5 +39 46 16   0.2994  1.2053   131.3    37.9    20.2
...
2016 12 05    07 47 49.3 +37 10 04   0.3107  1.2352   138.4    32.0    20.2
...
2016 12 13    07 36 08.5 +33 50 12   0.3309  1.2788   148.7    23.6    20.1
...
2016 12 28    07 11 20.4 +28 12 12   0.3913  1.3696   169.1     7.8    20.1

A. U. Tomatic                (C) Copyright 2016 MPC           M.P.E.C. 2016-W110




More information about the Iaude mailing list